This demonstration page uses our WeatherBlox Daily Observations layout. Learn more.

Left ArrowRight Arrow

Hourly Observations for January 26, 2018

Temp ( °F °C ) Dew Point ( °F °C ) Humidity (%) Winds ( mph kmh ) Pressure ( in mb ) Visibility ( mi km ) Precip ( " mm )
12:53 am 00:53 Clear 46 7.8 17 -8.3 31 31 S 15 24 29.77 1008 10 16 0.00 0.00
1:53 am 01:53 Clear 46 7.8 19 -7.2 34 34 S 17 28 29.75 1008 10 16 0.00 0.00
2:53 am 02:53 Clear 44 6.7 22 -5.6 41 41 S 16 26 29.73 1007 10 16 0.00 0.00
3:53 am 03:53 Clear 43 6.1 26 -3.3 51 51 S 15 24 29.72 1006 10 16 0.00 0.00
4:53 am 04:53 Clear 42 5.6 27 -2.8 55 55 SSW 12 19 29.74 1007 10 16 0.00 0.00
5:53 am 05:53 Clear 40 4.4 27 -2.8 60 60 S 10 17 29.72 1006 10 16 0.00 0.00
6:53 am 06:53 Clear 38 3.3 28 -2.2 68 68 S 9 15 29.72 1007 10 16 0.00 0.00
7:53 am 07:53 Sunny 37 2.8 28 -2.2 70 70 SSW 10 17 29.74 1007 10 16 0.00 0.00
8:53 am 08:53 Sunny 38 3.3 28 -2.2 68 68 SSW 10 17 29.75 1007 10 16 0.00 0.00
9:53 am 09:53 Sunny 40 4.4 28 -2.2 63 63 SSW 9 15 29.77 1008 10 16 0.00 0.00
10:53 am 10:53 Sunny 44 6.7 27 -2.8 51 51 WSW 5 7 29.78 1009 10 16 0.00 0.00
11:53 am 11:53 Sunny 46 7.8 26 -3.3 46 46 NW 17 28 29.82 1010 10 16 0.00 0.00
12:53 pm 12:53 Sunny 47 8.3 28 -2.2 48 48 NNW 20 31 29.85 1011 10 16 0.00 0.00
1:53 pm 13:53 Sunny 47 8.3 30 -1.1 52 52 NNW 24 39 29.87 1012 10 16 0.00 0.00
2:53 pm 14:53 Sunny 47 8.3 31 -0.6 54 54 NNW 25 41 29.91 1013 10 16 0.00 0.00
3:53 pm 15:53 Sunny 46 7.8 26 -3.3 46 46 NNW 21 33 29.95 1014 10 16 0.00 0.00
4:53 pm 16:53 Partly Cloudy 42 5.6 26 -3.3 53 53 NNW 15 24 29.98 1015 10 16 0.00 0.00
5:53 pm 17:53 Clear 37 2.8 26 -3.3 65 65 NW 13 20 30.04 1017 10 16 0.00 0.00
6:53 pm 18:53 Mostly Cloudy 38 3.3 27 -2.8 65 65 WNW 12 19 30.09 1019 10 16 0.00 0.00
7:53 pm 19:53 Cloudy 37 2.8 28 -2.2 70 70 WNW 10 17 30.14 1021 10 16 0.00 0.00
8:53 pm 20:53 Clear 35 1.7 28 -2.2 76 76 W 12 19 30.16 1021 10 16 0.00 0.00
9:53 pm 21:53 Clear 34 1.1 28 -2.2 79 79 W 7 11 30.18 1022 10 16 0.00 0.00
10:53 pm 22:53 Clear 30 -1.1 26 -3.3 85 85 W 7 11 30.19 1022 10 16 0.00 0.00
11:53 pm 23:53 Clear 30 -1.1 25 -3.9 82 82 W 8 13 30.20 1023 10 16 0.00 0.00

Powered by AerisWeather